Regional Weather Roundup
Issued by NWS

Home | Current Version | Previous Version | Graphics & Text | Print | Product List | Glossary On
Versions: 1 2 3 4 5 6 7 8 9 10 11 12 13 14 15 16 17 18 19 20 21 22 23 24 25 26 27 28 29 30 31 32 33 34 35 36 37 38 39 40 41 42 43 44 45 46 47 48 49 50
000
ASUS43 KMPX 281510
RWRMN
WEATHER ROUNDUP FOR MINNESOTA
NATIONAL WEATHER SERVICE TWIN CITIES/CHANHASSEN MN
1000 AM CDT THU JUL 28 2016


NOTE: "FAIR" INDICATES FEW OR NO CLOUDS BELOW 12,000 FEET WITH NO
SIGNIFICANT WEATHER AND/OR OBSTRUCTIONS TO VISIBILITY. N/A MEANS
CURRENT SKY AND/OR WEATHER CONDITIONS ARE NOT AVAILABLE.

MNZ060>063-068>070-281600-
   Twin Cities Metro

CITY           SKY/WX    TMP DP  RH WIND       PRES   REMARKS
TWIN CITIES    CLOUDY    66  62  87 N9        30.03R
ST PAUL        CLOUDY    69  63  81 NW12      30.03S
CRYSTAL        CLOUDY    64  59  83 N8        30.03R
BLAINE         CLOUDY    64  63  94 N9        30.04S FOG
LAKEVILLE      CLOUDY    64  64 100 N8        30.02S
EDEN PRAIRIE   CLOUDY    67  61  81 N9        30.03R
LAKEVILLE      CLOUDY    64  64 100 N8        30.02S
SOUTH ST PAUL  CLOUDY    68  63  84 NW9       30.02R
LAKE ELMO      CLOUDY    68  63  83 NE7       30.03S
$$
MNZ001>005-007-008-013>017-022>024-027-028-281600-
   Northwest Minnesota

CITY           SKY/WX    TMP DP  RH WIND       PRES   REMARKS
BEMIDJI        MOSUNNY   66  59  77 CALM      30.11F
HALLOCK        SUNNY     66  55  68 NE9       30.14F
ROSEAU         SUNNY     66  57  72 N6        30.14S
WARROAD        MOSUNNY   66  59  77 NE8       30.14F
THIEF RVR FALL SUNNY     67  58  72 N7        30.13S
CROOKSTON      SUNNY     70  61  73 E3        30.12R
FOSSTON        SUNNY     68  61  77 NE3       30.11F
DETROIT LAKES  MOSUNNY   70  63  78 E3        30.11S
MOORHEAD       MOSUNNY   70  64  83 N3        30.10R
PARK RAPIDS    PTSUNNY   68  62  81 CALM      30.11S
MAHNOMEN       PTSUNNY   69  62  78 NE5       30.10S
$$
MNZ006-009>011-018-025>026-281600-
   North Central Minnesota

CITY           SKY/WX    TMP DP  RH WIND       PRES   REMARKS
BAUDETTE       SUNNY     67  56  67 VRB3      30.13S
FLAG ISLAND    CLOUDY    64  54  68 NE9       30.13S
INTL FALLS     CLOUDY    68  57  68 NE5       30.12S
WASKISH        SUNNY     68  57  68 CALM      30.12S
BIG FORK       SUNNY     70  59  68 CALM      30.11S
LONGVILLE      CLOUDY    64  64 100 CALM      30.10S
GRAND RAPIDS   MOSUNNY   65  61  87 CALM      30.12F
ORR            PTSUNNY   66  55  68 CALM      30.09S
COOK           SUNNY     66  61  82 CALM      30.11F
WALKER         FAIR      66  61  81 CALM      30.10F
$$
MNZ012-019>021-037-281600-
   Northeast Minnesota

CITY           SKY/WX    TMP DP  RH WIND       PRES   REMARKS
DULUTH         SUNNY     69  53  56 E13       30.10R
ELY            PTSUNNY   68  52  56 SE8       30.11S
HIBBING        PTSUNNY   65  56  72 CALM      30.11S
EVELETH        SUNNY     70  55  59 CALM      30.11S
DULUTH HARBOR  SUNNY     66  59  77 NE7       30.09S
TWO HARBORS    SUNNY     72  57  60 E8        30.08R
SILVER BAY     SUNNY     70  55  60 E9        30.08S
GRAND MARAIS     N/A     66  51  58 E9        30.10R
$$
MNZ029>031-032-039>041-046>048-054>057-064-281600-
   West Central Minnesota

CITY           SKY/WX    TMP DP  RH WIND       PRES   REMARKS
FERGUS FALLS   MOSUNNY   72  63  73 E5        30.09S
WHEATON        MOSUNNY   72  64  78 E5        30.10S
MORRIS         PTSUNNY   73  61  64 E8        30.07R
ALEXANDRIA     PTSUNNY   70  57  63 NE8       30.10S
ELBOW LAKE     FAIR      69  62  78 E5        30.09S
WADENA         PTSUNNY   70  63  78 E3        30.09S
GLENWOOD       PTSUNNY   66  61  82 NE12      30.08S
APPLETON       PTSUNNY   70  59  68 NE5       30.07R
BENSON         CLOUDY    70  57  64 NE6       30.08R
ORTONVILLE     CLOUDY    68  61  77 CALM      30.08F
MADISON        CLOUDY    68  59  73 NE7       30.08S
WILLMAR        FAIR      68  61  77 E10       30.07S
$$
MNZ033>034-036-042>043-049>051-058-059-281600-
   Central Minnesota

CITY           SKY/WX    TMP DP  RH WIND       PRES   REMARKS
ST CLOUD       MOSUNNY   69  59  70 NE10      30.06S
SAUK CENTRE    FAIR      68  59  72 NE9       30.08S
PAYNESVILLE    PTSUNNY   68  61  79 NE8       30.07S
AITKIN         CLOUDY    70  54  56 E2        30.08
PINE RIVER     PTSUNNY   70  61  73 E6        30.12F
BRAINERD       MOSUNNY   68  57  68 NE6       30.09F
STAPLES        CLOUDY    68  57  68 NE5       30.09S
LONG PRAIRIE   FAIR      68  57  68 N6        30.09S
LITTLE FALLS   MOSUNNY   66  57  72 NE5       30.08S
LITCHFIELD     CLOUDY    66  63  88 NE9       30.06S
BUFFALO        CLOUDY    66  58  76 N8        30.06S
MAPLE LAKE     CLOUDY    66  60  82 N9        30.06F
HUTCHINSON     PTSUNNY   67  63  86 N6        30.06S
$$
MNZ037-044-045-052-053-281600-
   East Central Minnesota

CITY           SKY/WX    TMP DP  RH WIND       PRES   REMARKS
PRINCETON      CLOUDY    70  59  68 N12       30.06S
MORA           MOSUNNY   64  55  72 NE7       30.09S
CAMBRIDGE      PTSUNNY   68  55  64 N7        30.04S
RUSH CITY      LGT RAIN  66  59  78 NE8       30.06S
MOOSE LAKE     MOSUNNY   66  55  68 NE5       30.07S
HINCKLEY       FAIR      68  59  73 NE6       30.07S
CLOQUET        CLOUDY    68  52  56 E10       30.09S
MCGREGOR       PTSUNNY   68  54  60 NE5       30.09F
$$
MNZ071>073-080-081-089-090-097-098-281600-
   Southwest Minnesota

CITY           SKY/WX    TMP DP  RH WIND       PRES   REMARKS
MONTEVIDEO     CLOUDY    68  63  83 NE3       30.10R
GRANITE FALLS  CLOUDY    67  63  85 N3        30.09R
CANBY          CLOUDY    67  62  84 NE6       30.09F
MARSHALL       CLOUDY    65  62  90 N6        30.08R
REDWOOD FALLS  CLOUDY    66  61  84 VRB3      30.06R
OLIVIA         CLOUDY    64  61  88 NE7       30.06R
PIPESTONE      MOSUNNY   68  61  77 NE5       30.09R
WINDOM         CLOUDY    64  63  94 N8        30.06R
WORTHINGTON    PTSUNNY   66  61  82 N8        30.08S
JACKSON        CLOUDY    66  59  77 N3        30.07R
TRACY          CLOUDY    66  63  90 NE6       30.08S
SLAYTON        PTSUNNY   68  61  79 N7        30.09S HAZE
$$
MNZ065>067-074>077-082>085-091>093-281600-
   South Central Minnesota

CITY           SKY/WX    TMP DP  RH WIND       PRES   REMARKS
MANKATO        CLOUDY    64  59  82 NW9       30.03S
NEW ULM        CLOUDY    64  63  94 N6        30.05R
ST JAMES       CLOUDY    61  57  88 NW3       30.07R
FAIRMONT       CLOUDY    64  61  88 N7        30.05R
GLENCOE        CLOUDY    65  63  93 N8        30.04F
FARIBAULT      CLOUDY    68  64  88 N6        30.02R
OWATONNA       CLOUDY    66  63  88 N8        30.01S
WASECA         CLOUDY    64  61  88 N8        30.03S
ALBERT LEA     CLOUDY    66  64  94 N7        30.01R
$$
MNZ078>079-086>088-094>096-281600-
   Southeast Minnesota

CITY           SKY/WX    TMP DP  RH WIND       PRES   REMARKS
ROCHESTER      LGT RAIN  67  66  97 N12       29.99S FOG
RED WING       CLOUDY    70  64  83 N7        29.98S
DODGE CENTER   CLOUDY    66  64  94 N9        30.00R
WINONA         CLOUDY    70  66  88 N5        29.95S FOG
AUSTIN         CLOUDY    66  63  88 N9        29.99R
PRESTON        CLOUDY    65  63  91 N9        29.98R FOG
$$
ABBREVIATIONS USED IN REMARKS
   TC - TEMPERATURES IN CELSIUS
  WCI - WIND CHILL INDEX
   HX - HEAT INDEX
  VSB - VISIBILITY
$$



USA.gov is the U.S. government's official web portal to all federal, state and local government web resources and services.